Tracking 35055 objects as of 19-Aug-2026
HD Live streaming from Space Station
objects crossing your sky now

SL-4 R/B


SL-4 R/B is no longer on orbit


NORAD ID: 11099
Int'l Code: 1978-102B
Launch date: November 1, 1978
Source: Commonwealth of Independent States (former USSR) (CIS)
Launch site: PLESETSK MISSILE AND SPACE COMPLEX (PKMTR)
Decay date: 1978-11-07

Note: This is a ROCKET BODY
Your satellite tracking list
Your tracking list is empty




NASA's NSSDC Master Catalog

Two Line Element Set (TLE):
1 11099U 78102  B 78310.69379552  .04254707 +00000-0 +00000-0 0  9992
2 11099 072.8682 211.8319 0023349 046.7434 321.8919 16.33010674000845
Source of the keplerian elements: AFSPC